{"data":{"norad_id":64104,"intl_designator":"2025-110J","name":"STARLINK-34176","alt_names":[],"object_type":"PAYLOAD","status":"ACTIVE","operator":null,"country":"US","launch_date":"2025-05-23","launch_site_code":"AFWTR","launch_vehicle":null,"mission":null,"orbit_class":"UNKNOWN","rcs_meters":null,"size_class":null,"mass_kg":null,"dimensions":null,"purposes":["comms"],"wikipedia_slug":null,"has_3d_model":false,"image_url":null,"decayed_at":null,"tle_current":{"epoch":"2026-05-25T01:44:34.156320Z","epoch_age_seconds":66236,"freshness":"FRESH","line1":"1 64104U 25110J   26145.07261755  .00020878  00000+0  71489-3 0  9991","line2":"2 64104  53.1624  32.2121 0001062  96.7804 263.3317 15.30207476 57576","mean_motion":15.30207476,"eccentricity":0.0001062,"inclination_deg":53.1624,"raan_deg":32.2121,"arg_perigee_deg":96.7804,"mean_anomaly_deg":263.3317,"bstar":0.00071489,"rev_number":5757,"period_min":94.104885944238,"perigee_km":474.46492390258,"apogee_km":475.92057114095,"semimajor_km":6853.3297475218,"source":"CELESTRAK","updated_at":"2026-05-25T13:38:20.265085Z"}}}